{"data":{"norad_id":61908,"epoch":"2026-09-22T23:21:13.821696Z","epoch_age_seconds":88319,"freshness":"FRESH","line1":"1 61908U 24205Q   26265.97307664  .00003515  00000+0  17473-3 0  9998","line2":"2 61908  97.4049 336.4035 0013284  79.6775 280.5956 15.18215066103163","mean_motion":15.18215066,"eccentricity":0.0013284,"inclination_deg":97.4049,"raan_deg":336.4035,"arg_perigee_deg":79.6775,"mean_anomaly_deg":280.5956,"bstar":0.00017473,"rev_number":10316,"period_min":94.848222247849,"perigee_km":502.08328169843,"apogee_km":520.38696555648,"semimajor_km":6889.3721236275,"source":"CELESTRAK","updated_at":"2026-09-23T09:00:21.101223Z"}}